,,,PA_Meas_PMT16A,,PR_Meas_QMR101_102,,RH_Meas_QMH101,,SR_Meas_QMS101,,TA_Meas_QMH101,,GenWind,,GenWind,
date,time,status,PA,status,PR,status,RH,status,SR,status,TA,status,DirAvg,status,SpdAvg,
2012-06-19, 00:00:04,VALID,1006.03,VALID,0,VALID,88.3119,VALID,0,VALID,23.9548,VALID,351,VALID,0.319531,
2012-06-19, 00:01:04,VALID,1006.02,VALID,0,VALID,88.5255,VALID,0,VALID,23.9566,VALID,351,VALID,0.250391,
2012-06-19, 00:02:04,VALID,1006.03,VALID,0,VALID,88.907,VALID,0.0815089,VALID,23.9353,VALID,351,VALID,0.435547,
2012-06-19, 00:03:04,VALID,1006.04,VALID,0,VALID,88.8688,VALID,0,VALID,23.9159,VALID,351,VALID,0.286328,
2012-06-19, 00:04:04,VALID,1006.04,VALID,0,VALID,88.9756,VALID,0.0815089,VALID,23.9177,VALID,351,VALID,0.410547,
2012-06-19, 00:05:04,VALID,1006.03,VALID,0,VALID,88.8841,VALID,0,VALID,23.8751,VALID,351,VALID,0.396875,
2012-06-19, 00:06:04,VALID,1006.01,VALID,0,VALID,89.1664,VALID,0,VALID,23.8769,VALID,351,VALID,0.48125,
2012-06-19, 00:07:04,VALID,1005.98,VALID,0,VALID,89.3647,VALID,0.0815089,VALID,23.8964,VALID,351,VALID,0.544922,
2012-06-19, 00:08:04,VALID,1005.98,VALID,0,VALID,89.4944,VALID,0.0815089,VALID,23.8751,VALID,351,VALID,0.380469,
2012-06-19, 00:09:04,VALID,1005.98,VALID,0,VALID,89.4181,VALID,0,VALID,23.8593,VALID,351,VALID,0.392188,
2012-06-19, 00:10:04,VALID,1005.99,VALID,0,VALID,89.6317,VALID,0,VALID,23.8203,VALID,351,VALID,0.347656,
2012-06-19, 00:11:04,VALID,1006,VALID,0,VALID,89.7614,VALID,0,VALID,23.8009,VALID,351,VALID,0.405859,
2012-06-19, 00:12:04,VALID,1005.97,VALID,0,VALID,89.8072,VALID,0,VALID,23.7814,VALID,351,VALID,0.255469,
2012-06-19, 00:13:04,VALID,1006,VALID,0,VALID,89.9903,VALID,0,VALID,23.7619,VALID,351,VALID,0.248047,
2012-06-19, 00:14:04,VALID,1006.01,VALID,0,VALID,90.0589,VALID,0,VALID,23.723,VALID,351,VALID,0.0648438,
2012-06-19, 00:15:04,VALID,1005.99,VALID,0,VALID,90.1276,VALID,0,VALID,23.7035,VALID,351,VALID,0.259766,
2012-06-19, 00:16:04,VALID,1005.99,VALID,0,VALID,90.036,VALID,0,VALID,23.6841,VALID,351,VALID,0.375,
2012-06-19, 00:17:04,VALID,1005.98,VALID,0,VALID,90.0208,VALID,0,VALID,23.6257,VALID,351,VALID,0.502344,
2012-06-19, 00:18:04,VALID,1005.99,VALID,0,VALID,90.3336,VALID,0,VALID,23.6257,VALID,351,VALID,0.574219,
2012-06-19, 00:19:04,VALID,1005.99,VALID,0,VALID,90.654,VALID,0,VALID,23.5868,VALID,351,VALID,0.445313,
2012-06-19, 00:20:04,VALID,1005.99,VALID,0,VALID,90.7226,VALID,0,VALID,23.5885,VALID,351,VALID,0.405078,
2012-06-19, 00:21:04,VALID,1005.96,VALID,0,VALID,90.8066,VALID,0,VALID,23.5478,VALID,351,VALID,0.447266,
2012-06-19, 00:22:04,VALID,1005.99,VALID,0,VALID,90.8447,VALID,0,VALID,23.4877,VALID,351,VALID,0.469531,
2012-06-19, 00:23:04,VALID,1005.98,VALID,0,VALID,90.7608,VALID,0,VALID,23.5302,VALID,351,VALID,0.269531,
2012-06-19, 00:24:04,VALID,1005.97,VALID,0,VALID,90.8676,VALID,0,VALID,23.4877,VALID,351,VALID,0.234375,
2012-06-19, 00:25:04,VALID,1005.95,VALID,0,VALID,91.0049,VALID,0,VALID,23.4682,VALID,351,VALID,0.278516,
2012-06-19, 00:26:04,VALID,1005.94,VALID,0,VALID,90.9515,VALID,0.0815089,VALID,23.447,VALID,351,VALID,0,
2012-06-19, 00:27:04,VALID,1005.92,VALID,0,VALID,90.9363,VALID,0,VALID,23.4275,VALID,351,VALID,0.0015625,
2012-06-19, 00:28:04,VALID,1005.9,VALID,0,VALID,90.9515,VALID,0.0815089,VALID,23.3886,VALID,351,VALID,0.307031,
2012-06-19, 00:29:04,VALID,1005.9,VALID,0,VALID,91.0659,VALID,0.0815089,VALID,23.3904,VALID,351,VALID,0.248437,
2012-06-19, 00:30:04,VALID,1005.87,VALID,0,VALID,91.2948,VALID,0,VALID,23.3709,VALID,351,VALID,0.361328,
2012-06-19, 00:31:04,VALID,1005.86,VALID,0,VALID,91.4321,VALID,0,VALID,23.3727,VALID,351,VALID,0.266797,
2012-06-19, 00:32:04,VALID,1005.85,VALID,0,VALID,91.5237,VALID,0,VALID,23.3727,VALID,351,VALID,0.380859,
2012-06-19, 00:33:04,VALID,1005.84,VALID,0,VALID,91.5695,VALID,0,VALID,23.3532,VALID,351,VALID,0.310156,
2012-06-19, 00:34:04,VALID,1005.81,VALID,0,VALID,91.6457,VALID,0,VALID,23.3532,VALID,351,VALID,0.342969,
2012-06-19, 00:35:04,VALID,1005.81,VALID,0,VALID,91.6457,VALID,0,VALID,23.3532,VALID,351,VALID,0.439063,
2012-06-19, 00:36:04,VALID,1005.81,VALID,0,VALID,91.6534,VALID,0,VALID,23.3125,VALID,351,VALID,0.389844,
2012-06-19, 00:37:04,VALID,1005.81,VALID,0,VALID,91.722,VALID,0,VALID,23.3143,VALID,351,VALID,0.478516,
2012-06-19, 00:38:04,VALID,1005.79,VALID,0,VALID,91.8136,VALID,0,VALID,23.3143,VALID,351,VALID,0.533594,
2012-06-19, 00:39:04,VALID,1005.79,VALID,0,VALID,91.8899,VALID,0.0815089,VALID,23.2718,VALID,351,VALID,0.557422,
2012-06-19, 00:40:04,VALID,1005.77,VALID,0,VALID,92.0348,VALID,0.0815089,VALID,23.2718,VALID,351,VALID,0.628516,
2012-06-19, 00:41:04,VALID,1005.75,VALID,0,VALID,92.1492,VALID,0,VALID,23.2718,VALID,351,VALID,0.522656,
2012-06-19, 00:42:04,VALID,1005.71,VALID,0,VALID,92.195,VALID,0,VALID,23.2718,VALID,351,VALID,0.498437,
2012-06-19, 00:43:04,VALID,1005.7,VALID,0,VALID,92.2332,VALID,0,VALID,23.2931,VALID,351,VALID,0.563281,
2012-06-19, 00:44:04,VALID,1005.71,VALID,0,VALID,92.2408,VALID,0,VALID,23.2931,VALID,351,VALID,0.505859,
2012-06-19, 00:45:04,VALID,1005.71,VALID,0,VALID,92.3171,VALID,0,VALID,23.2736,VALID,351,VALID,0.438672,
2012-06-19, 00:46:04,VALID,1005.71,VALID,0,VALID,92.4163,VALID,0,VALID,23.2736,VALID,351,VALID,0.375,
2012-06-19, 00:47:04,VALID,1005.7,VALID,0,VALID,92.4697,VALID,0.0815089,VALID,23.2931,VALID,351,VALID,0.378125,
2012-06-19, 00:48:04,VALID,1005.68,VALID,0,VALID,92.5078,VALID,0.0815089,VALID,23.2736,VALID,351,VALID,0.430078,
2012-06-19, 00:49:04,VALID,1005.65,VALID,0,VALID,92.5002,VALID,0.0815089,VALID,23.2736,VALID,351,VALID,0.373828,
2012-06-19, 00:50:04,VALID,1005.65,VALID,0,VALID,92.546,VALID,0.0815089,VALID,23.2524,VALID,351,VALID,0.459375,
2012-06-19, 00:51:04,VALID,1005.63,VALID,0,VALID,92.4773,VALID,0.0815089,VALID,23.2736,VALID,351,VALID,0.243359,
2012-06-19, 00:52:04,VALID,1005.61,VALID,0,VALID,92.4697,VALID,0.0815089,VALID,23.2541,VALID,351,VALID,0.391797,
2012-06-19, 00:53:04,VALID,1005.63,VALID,0,VALID,92.4239,VALID,0.0815089,VALID,23.2329,VALID,351,VALID,0.248828,
2012-06-19, 00:54:04,VALID,1005.59,VALID,0,VALID,92.4315,VALID,0.0815089,VALID,23.2347,VALID,351,VALID,0.277344,
2012-06-19, 00:55:04,VALID,1005.57,VALID,0,VALID,92.4391,VALID,0.0815089,VALID,23.2134,VALID,351,VALID,0.403906,
2012-06-19, 00:56:04,VALID,1005.55,VALID,0,VALID,92.3247,VALID,0.0815089,VALID,23.2347,VALID,351,VALID,0.310937,
2012-06-19, 00:57:04,VALID,1005.52,VALID,0,VALID,92.195,VALID,0.0815089,VALID,23.194,VALID,351,VALID,0.337109,
2012-06-19, 00:58:04,VALID,1005.48,VALID,0,VALID,92.0882,VALID,0.0815089,VALID,23.194,VALID,351,VALID,0.390234,
2012-06-19, 00:59:04,VALID,1005.51,VALID,0,VALID,92.0196,VALID,0.0815089,VALID,23.1745,VALID,351,VALID,0.407422,
2012-06-19, 01:00:04,VALID,1005.46,VALID,0,VALID,92.0272,VALID,0,VALID,23.194,VALID,351,VALID,0.369141,
2012-06-19, 01:01:04,VALID,1005.47,VALID,0,VALID,92.0882,VALID,0.0815089,VALID,23.194,VALID,351,VALID,0.449219,
2012-06-19, 01:02:04,VALID,1005.46,VALID,0,VALID,92.1416,VALID,0.0815089,VALID,23.2152,VALID,351,VALID,0.459375,
2012-06-19, 01:03:04,VALID,1005.5,VALID,0,VALID,92.0806,VALID,0.0815089,VALID,23.2347,VALID,351,VALID,0.403516,
2012-06-19, 01:04:04,VALID,1005.47,VALID,0,VALID,92.0577,VALID,0.0815089,VALID,23.1745,VALID,351,VALID,0.384375,
2012-06-19, 01:05:04,VALID,1005.48,VALID,0,VALID,92.0806,VALID,0.0815089,VALID,23.1339,VALID,351,VALID,0.338672,
2012-06-19, 01:06:04,VALID,1005.48,VALID,0,VALID,92.1187,VALID,0.0815089,VALID,23.1551,VALID,351,VALID,0.320703,
2012-06-19, 01:07:04,VALID,1005.45,VALID,0,VALID,92.2103,VALID,0.0815089,VALID,23.1356,VALID,351,VALID,0.264062,
2012-06-19, 01:08:04,VALID,1005.43,VALID,0,VALID,92.1798,VALID,0.0815089,VALID,23.1162,VALID,351,VALID,0.278516,
2012-06-19, 01:09:04,VALID,1005.42,VALID,0,VALID,92.195,VALID,0,VALID,23.1197,VALID,351,VALID,0.162109,
2012-06-19, 01:10:04,VALID,1005.4,VALID,0,VALID,92.195,VALID,0,VALID,23.1197,VALID,351,VALID,0.210156,
2012-06-19, 01:11:04,VALID,1005.37,VALID,0,VALID,92.2713,VALID,0,VALID,23.0984,VALID,351,VALID,0.321875,
2012-06-19, 01:12:04,VALID,1005.36,VALID,0,VALID,92.3781,VALID,0,VALID,23.1179,VALID,351,VALID,0.296094,
2012-06-19, 01:13:04,VALID,1005.34,VALID,0,VALID,92.4239,VALID,0,VALID,23.1179,VALID,351,VALID,0.327734,
2012-06-19, 01:14:04,VALID,1005.32,VALID,0,VALID,92.3552,VALID,0,VALID,23.1391,VALID,351,VALID,0.341406,
2012-06-19, 01:15:04,VALID,1005.31,VALID,0,VALID,92.2942,VALID,0,VALID,23.1179,VALID,351,VALID,0.3125,
2012-06-19, 01:16:04,VALID,1005.28,VALID,0,VALID,92.2484,VALID,0,VALID,23.1179,VALID,351,VALID,0.280469,
2012-06-19, 01:17:04,VALID,1005.27,VALID,0,VALID,92.2789,VALID,0,VALID,23.0984,VALID,351,VALID,0.284375,
2012-06-19, 01:18:04,VALID,1005.25,VALID,0,VALID,92.2637,VALID,0,VALID,23.0984,VALID,351,VALID,0.208594,
2012-06-19, 01:19:04,VALID,1005.24,VALID,0,VALID,92.2484,VALID,0,VALID,23.079,VALID,351,VALID,0.189844,
2012-06-19, 01:20:04,VALID,1005.23,VALID,0,VALID,92.2789,VALID,0,VALID,23.079,VALID,351,VALID,0,
2012-06-19, 01:21:04,VALID,1005.22,VALID,0,VALID,92.2866,VALID,0,VALID,23.0613,VALID,351,VALID,0,
2012-06-19, 01:22:04,VALID,1005.21,VALID,0,VALID,92.2866,VALID,0,VALID,23.0595,VALID,351,VALID,0,
2012-06-19, 01:23:04,VALID,1005.18,VALID,0,VALID,92.3018,VALID,0,VALID,23.0595,VALID,351,VALID,0,
2012-06-19, 01:24:04,VALID,1005.19,VALID,0,VALID,92.2255,VALID,0,VALID,23.0595,VALID,351,VALID,0,
2012-06-19, 01:25:04,VALID,1005.18,VALID,0,VALID,92.1645,VALID,0,VALID,23.0595,VALID,351,VALID,0,
2012-06-19, 01:26:04,VALID,1005.19,VALID,0,VALID,92.2103,VALID,0,VALID,23.0595,VALID,351,VALID,0,
2012-06-19, 01:27:04,VALID,1005.2,VALID,0,VALID,92.2332,VALID,0,VALID,23.0807,VALID,351,VALID,0,
2012-06-19, 01:28:04,VALID,1005.18,VALID,0,VALID,92.2103,VALID,0,VALID,23.0401,VALID,351,VALID,0,
2012-06-19, 01:29:04,VALID,1005.16,VALID,0,VALID,92.1721,VALID,0,VALID,23.0206,VALID,351,VALID,0,
2012-06-19, 01:30:04,VALID,1005.13,VALID,0,VALID,92.1264,VALID,0,VALID,23.0012,VALID,351,VALID,0,
2012-06-19, 01:31:04,VALID,1005.16,VALID,0,VALID,92.1187,VALID,0,VALID,22.9817,VALID,351,VALID,0,
2012-06-19, 01:32:04,VALID,1005.15,VALID,0,VALID,92.1264,VALID,0,VALID,23.0029,VALID,351,VALID,0,
2012-06-19, 01:33:04,VALID,1005.16,VALID,0,VALID,92.1035,VALID,0,VALID,23.0029,VALID,351,VALID,0,
2012-06-19, 01:34:04,VALID,1005.12,VALID,0,VALID,92.2027,VALID,0,VALID,22.9817,VALID,351,VALID,0,
2012-06-19, 01:35:04,VALID,1005.14,VALID,0,VALID,92.3018,VALID,0,VALID,23.0029,VALID,351,VALID,0,
2012-06-19, 01:36:04,VALID,1005.13,VALID,0,VALID,92.3476,VALID,0,VALID,23.0012,VALID,351,VALID,0,
2012-06-19, 01:37:04,VALID,1005.13,VALID,0,VALID,92.3247,VALID,0,VALID,23.0012,VALID,351,VALID,0,
2012-06-19, 01:38:04,VALID,1005.14,VALID,0,VALID,92.401,VALID,0,VALID,22.9817,VALID,351,VALID,0,
2012-06-19, 01:39:04,VALID,1005.14,VALID,0,VALID,92.3476,VALID,0,VALID,22.9817,VALID,351,VALID,0,
2012-06-19, 01:40:04,VALID,1005.11,VALID,0,VALID,92.2637,VALID,0,VALID,22.9817,VALID,351,VALID,0,
2012-06-19, 01:41:04,VALID,1005.12,VALID,0,VALID,92.1721,VALID,0,VALID,22.941,VALID,351,VALID,0,
2012-06-19, 01:42:04,VALID,1005.13,VALID,0,VALID,92.1721,VALID,0,VALID,22.9428,VALID,351,VALID,0,
2012-06-19, 01:43:04,VALID,1005.12,VALID,0,VALID,92.1187,VALID,0,VALID,22.964,VALID,351,VALID,0,
2012-06-19, 01:44:04,VALID,1005.1,VALID,0,VALID,92.0958,VALID,0,VALID,22.964,VALID,351,VALID,0,
2012-06-19, 01:45:04,VALID,1005.08,VALID,0,VALID,92.0196,VALID,0,VALID,22.9233,VALID,351,VALID,0,
2012-06-19, 01:46:04,VALID,1005.07,VALID,0,VALID,92.0501,VALID,0,VALID,22.9039,VALID,351,VALID,0,
2012-06-19, 01:47:04,VALID,1005.05,VALID,0,VALID,92.0958,VALID,0,VALID,22.9233,VALID,351,VALID,0,
2012-06-19, 01:48:04,VALID,1005.02,VALID,0,VALID,92.134,VALID,0,VALID,22.9233,VALID,351,VALID,0,
2012-06-19, 01:49:04,VALID,1005.02,VALID,0,VALID,92.1645,VALID,0,VALID,22.9039,VALID,351,VALID,0,
2012-06-19, 01:50:04,VALID,1005.02,VALID,0,VALID,92.195,VALID,0,VALID,22.9056,VALID,351,VALID,0,
2012-06-19, 01:51:04,VALID,1004.96,VALID,0,VALID,92.3171,VALID,0,VALID,22.9233,VALID,351,VALID,0,
2012-06-19, 01:52:04,VALID,1004.98,VALID,0,VALID,92.4697,VALID,0,VALID,22.9445,VALID,351,VALID,0,
2012-06-19, 01:53:04,VALID,1004.97,VALID,0,VALID,92.6222,VALID,0,VALID,22.964,VALID,351,VALID,0,
2012-06-19, 01:54:04,VALID,1004.96,VALID,0,VALID,92.7596,VALID,0,VALID,22.9622,VALID,351,VALID,0,
2012-06-19, 01:55:04,VALID,1004.98,VALID,0,VALID,92.8206,VALID,0,VALID,22.9817,VALID,351,VALID,0,
2012-06-19, 01:56:04,VALID,1004.96,VALID,0,VALID,92.7977,VALID,0,VALID,22.9817,VALID,351,VALID,0,
2012-06-19, 01:57:04,VALID,1004.94,VALID,0,VALID,92.8206,VALID,0,VALID,23.0029,VALID,351,VALID,0,
2012-06-19, 01:58:04,VALID,1004.9,VALID,0,VALID,92.8206,VALID,0,VALID,22.9817,VALID,351,VALID,0,
2012-06-19, 01:59:04,VALID,1004.88,VALID,0,VALID,92.813,VALID,0,VALID,22.9817,VALID,351,VALID,0,
2012-06-19, 02:00:04,VALID,1004.9,VALID,0,VALID,92.8053,VALID,0,VALID,22.9622,VALID,351,VALID,0,
2012-06-19, 02:01:04,VALID,1004.88,VALID,0,VALID,92.7519,VALID,0,VALID,22.9622,VALID,351,VALID,0,
2012-06-19, 02:02:04,VALID,1004.85,VALID,0,VALID,92.7062,VALID,0,VALID,22.9428,VALID,351,VALID,0,
2012-06-19, 02:03:04,VALID,1004.86,VALID,0,VALID,92.7596,VALID,0,VALID,22.9021,VALID,351,VALID,0,
2012-06-19, 02:04:04,VALID,1004.86,VALID,0,VALID,92.8282,VALID,0,VALID,22.9021,VALID,351,VALID,0,
2012-06-19, 02:05:04,VALID,1004.81,VALID,0,VALID,92.7901,VALID,0,VALID,22.9251,VALID,351,VALID,0,
2012-06-19, 02:06:04,VALID,1004.82,VALID,0,VALID,92.8053,VALID,0,VALID,22.8844,VALID,351,VALID,0,
2012-06-19, 02:07:04,VALID,1004.8,VALID,0,VALID,92.9045,VALID,0,VALID,22.9251,VALID,351,VALID,0,
2012-06-19, 02:08:04,VALID,1004.81,VALID,0,VALID,92.8969,VALID,0,VALID,22.8844,VALID,351,VALID,0,
2012-06-19, 02:09:04,VALID,1004.79,VALID,0,VALID,92.8969,VALID,0,VALID,22.8844,VALID,351,VALID,0,
2012-06-19, 02:10:04,VALID,1004.79,VALID,0,VALID,92.874,VALID,0,VALID,22.8455,VALID,351,VALID,0,
2012-06-19, 02:11:04,VALID,1004.76,VALID,0,VALID,92.8892,VALID,0,VALID,22.8455,VALID,351,VALID,0,
2012-06-19, 02:12:04,VALID,1004.76,VALID,0,VALID,92.9579,VALID,0,VALID,22.826,VALID,351,VALID,0,
2012-06-19, 02:13:04,VALID,1004.73,VALID,0,VALID,92.9655,VALID,0.0815089,VALID,22.826,VALID,351,VALID,0,
2012-06-19, 02:14:04,VALID,1004.7,VALID,0,VALID,93.0723,VALID,0,VALID,22.8472,VALID,351,VALID,0,
2012-06-19, 02:15:04,VALID,1004.71,VALID,0,VALID,93.0495,VALID,0,VALID,22.826,VALID,351,VALID,0,
2012-06-19, 02:16:04,VALID,1004.67,VALID,0,VALID,93.1105,VALID,0,VALID,22.826,VALID,351,VALID,0,
2012-06-19, 02:17:04,VALID,1004.66,VALID,0,VALID,93.1639,VALID,0,VALID,22.8048,VALID,351,VALID,0,
2012-06-19, 02:18:04,VALID,1004.63,VALID,0,VALID,93.0876,VALID,0,VALID,22.8278,VALID,351,VALID,0,
2012-06-19, 02:19:04,VALID,1004.64,VALID,0,VALID,93.0876,VALID,0,VALID,22.8066,VALID,351,VALID,0,
2012-06-19, 02:20:04,VALID,1004.62,VALID,0,VALID,93.0876,VALID,0,VALID,22.8066,VALID,351,VALID,0,
2012-06-19, 02:21:04,VALID,1004.61,VALID,0,VALID,93.1029,VALID,0,VALID,22.8066,VALID,351,VALID,0,
2012-06-19, 02:22:04,VALID,1004.59,VALID,0,VALID,93.0723,VALID,0,VALID,22.7871,VALID,351,VALID,0,
2012-06-19, 02:23:04,VALID,1004.55,VALID,0,VALID,93.1105,VALID,0,VALID,22.7871,VALID,351,VALID,0,
2012-06-19, 02:24:04,VALID,1004.53,VALID,0,VALID,93.0723,VALID,0.0815089,VALID,22.7871,VALID,351,VALID,0,
2012-06-19, 02:25:04,VALID,1004.51,VALID,0,VALID,93.0189,VALID,0.0815089,VALID,22.7677,VALID,351,VALID,0,
2012-06-19, 02:26:04,VALID,1004.53,VALID,0,VALID,93.0189,VALID,0,VALID,22.7694,VALID,351,VALID,0,
2012-06-19, 02:27:04,VALID,1004.5,VALID,0,VALID,93.0189,VALID,0,VALID,22.7482,VALID,351,VALID,0,
2012-06-19, 02:28:04,VALID,1004.53,VALID,0,VALID,93.0342,VALID,0,VALID,22.7677,VALID,351,VALID,0,
2012-06-19, 02:29:04,VALID,1004.52,VALID,0,VALID,92.9961,VALID,0,VALID,22.7482,VALID,351,VALID,0,
2012-06-19, 02:30:05,VALID,1004.54,VALID,0,VALID,92.9503,VALID,0.0815089,VALID,22.7482,VALID,351,VALID,0,
2012-06-19, 02:31:05,VALID,1004.54,VALID,0,VALID,93.0418,VALID,0,VALID,22.7677,VALID,351,VALID,0,
2012-06-19, 02:32:05,VALID,1004.53,VALID,0,VALID,93.1029,VALID,0,VALID,22.7465,VALID,351,VALID,0,
2012-06-19, 02:33:05,VALID,1004.54,VALID,0,VALID,93.0647,VALID,0,VALID,22.7465,VALID,351,VALID,0,
2012-06-19, 02:34:05,VALID,1004.51,VALID,0,VALID,93.08,VALID,0,VALID,22.7659,VALID,351,VALID,0,
2012-06-19, 02:35:05,VALID,1004.5,VALID,0,VALID,93.0189,VALID,0.0815089,VALID,22.7659,VALID,351,VALID,0,
2012-06-19, 02:36:05,VALID,1004.52,VALID,0,VALID,92.9808,VALID,0,VALID,22.7677,VALID,351,VALID,0,
2012-06-19, 02:37:05,VALID,1004.5,VALID,0,VALID,92.9732,VALID,0,VALID,22.7482,VALID,351,VALID,0,
2012-06-19, 02:38:05,VALID,1004.46,VALID,0,VALID,92.9503,VALID,0.0815089,VALID,22.7482,VALID,351,VALID,0,
2012-06-19, 02:39:05,VALID,1004.45,VALID,0,VALID,92.9426,VALID,0.0815089,VALID,22.7076,VALID,351,VALID,0,
2012-06-19, 02:40:05,VALID,1004.43,VALID,0,VALID,92.9884,VALID,0,VALID,22.7076,VALID,351,VALID,0,
2012-06-19, 02:41:05,VALID,1004.44,VALID,0,VALID,93.0571,VALID,0,VALID,22.6881,VALID,351,VALID,0,
2012-06-19, 02:42:05,VALID,1004.41,VALID,0,VALID,93.0647,VALID,0.0815089,VALID,22.7287,VALID,351,VALID,0,
2012-06-19, 02:43:05,VALID,1004.42,VALID,0,VALID,93.1105,VALID,0,VALID,22.7287,VALID,351,VALID,0,
2012-06-19, 02:44:05,VALID,1004.4,VALID,0,VALID,93.1181,VALID,0,VALID,22.7287,VALID,351,VALID,0,
2012-06-19, 02:45:05,VALID,1004.41,VALID,0,VALID,93.0876,VALID,0,VALID,22.7287,VALID,351,VALID,0,
2012-06-19, 02:46:05,VALID,1004.37,VALID,0,VALID,93.0647,VALID,0,VALID,22.7093,VALID,351,VALID,0,
2012-06-19, 02:47:05,VALID,1004.38,VALID,0,VALID,93.0876,VALID,0,VALID,22.7093,VALID,351,VALID,0,
2012-06-19, 02:48:05,VALID,1004.35,VALID,0,VALID,93.1715,VALID,0,VALID,22.7287,VALID,351,VALID,0,
2012-06-19, 02:49:05,VALID,1004.34,VALID,0,VALID,93.2554,VALID,0,VALID,22.7287,VALID,351,VALID,0,
2012-06-19, 02:50:05,VALID,1004.32,VALID,0,VALID,93.2325,VALID,0,VALID,22.7482,VALID,351,VALID,0,
2012-06-19, 02:51:05,VALID,1004.29,VALID,0,VALID,93.3088,VALID,0.0815089,VALID,22.7677,VALID,351,VALID,0,
2012-06-19, 02:52:05,VALID,1004.3,VALID,0,VALID,93.3317,VALID,0,VALID,22.7677,VALID,351,VALID,0,
2012-06-19, 02:53:05,VALID,1004.27,VALID,0,VALID,93.4004,VALID,0,VALID,22.7677,VALID,351,VALID,0,
2012-06-19, 02:54:05,VALID,1004.27,VALID,0,VALID,93.4996,VALID,0,VALID,22.8278,VALID,351,VALID,0,
2012-06-19, 02:55:05,VALID,1004.25,VALID,0,VALID,93.5072,VALID,0,VALID,22.8066,VALID,351,VALID,0,
2012-06-19, 02:56:05,VALID,1004.24,VALID,0,VALID,93.5072,VALID,0.0815089,VALID,22.8066,VALID,351,VALID,0,
2012-06-19, 02:57:05,VALID,1004.22,VALID,0,VALID,93.5148,VALID,0,VALID,22.826,VALID,351,VALID,0,
2012-06-19, 02:58:05,VALID,1004.22,VALID,0,VALID,93.4233,VALID,0.0815089,VALID,22.8066,VALID,351,VALID,0,
2012-06-19, 02:59:05,VALID,1004.22,VALID,0,VALID,93.4767,VALID,0,VALID,22.7871,VALID,351,VALID,0,
2012-06-19, 03:00:05,VALID,1004.24,VALID,0,VALID,93.6521,VALID,0,VALID,22.826,VALID,351,VALID,0,
2012-06-19, 03:01:05,VALID,1004.21,VALID,0,VALID,93.6903,VALID,0,VALID,22.826,VALID,351,VALID,0,
2012-06-19, 03:02:05,VALID,1004.2,VALID,0,VALID,93.6903,VALID,0,VALID,22.826,VALID,351,VALID,0,
2012-06-19, 03:03:05,VALID,1004.19,VALID,0,VALID,93.6521,VALID,0,VALID,22.8048,VALID,351,VALID,0,
2012-06-19, 03:04:05,VALID,1004.18,VALID,0,VALID,93.6292,VALID,0,VALID,22.8048,VALID,351,VALID,0,
2012-06-19, 03:05:05,VALID,1004.17,VALID,0,VALID,93.5224,VALID,0,VALID,22.7677,VALID,351,VALID,0,
2012-06-19, 03:06:05,VALID,1004.18,VALID,0,VALID,93.7742,VALID,0,VALID,22.8066,VALID,351,VALID,0,
2012-06-19, 03:07:05,VALID,1004.17,VALID,0,VALID,93.7895,VALID,0,VALID,22.826,VALID,351,VALID,0,
2012-06-19, 03:08:05,VALID,1004.17,VALID,0,VALID,93.8123,VALID,0.0815089,VALID,22.8472,VALID,351,VALID,0,
2012-06-19, 03:09:05,VALID,1004.16,VALID,0,VALID,93.8429,VALID,0,VALID,22.826,VALID,351,VALID,0,
2012-06-19, 03:10:05,VALID,1004.14,VALID,0,VALID,93.8352,VALID,0,VALID,22.8667,VALID,351,VALID,0,
2012-06-19, 03:11:05,VALID,1004.13,VALID,0,VALID,93.7742,VALID,0,VALID,22.8066,VALID,351,VALID,0,
2012-06-19, 03:12:05,VALID,1004.13,VALID,0,VALID,93.7666,VALID,0.0815089,VALID,22.7465,VALID,351,VALID,0,
2012-06-19, 03:13:05,VALID,1004.11,VALID,0,VALID,93.7666,VALID,0.0815089,VALID,22.7677,VALID,351,VALID,0,
2012-06-19, 03:14:05,VALID,1004.08,VALID,0,VALID,93.8123,VALID,0.0815089,VALID,22.7659,VALID,351,VALID,0,
2012-06-19, 03:15:05,VALID,1004.1,VALID,0,VALID,93.7437,VALID,0.0815089,VALID,22.7482,VALID,351,VALID,0,
2012-06-19, 03:16:05,VALID,1004.07,VALID,0,VALID,93.82,VALID,0.0815089,VALID,22.727,VALID,351,VALID,0,
2012-06-19, 03:17:05,VALID,1004.11,VALID,0,VALID,93.9039,VALID,0.0815089,VALID,22.7482,VALID,351,VALID,0,
2012-06-19, 03:18:05,VALID,1004.08,VALID,0,VALID,93.881,VALID,0.0815089,VALID,22.7482,VALID,351,VALID,0,
2012-06-19, 03:19:05,VALID,1004.1,VALID,0,VALID,93.9115,VALID,0.0815089,VALID,22.7482,VALID,351,VALID,0,
2012-06-19, 03:20:05,VALID,1004.08,VALID,0,VALID,94.0107,VALID,0,VALID,22.7677,VALID,351,VALID,0,
2012-06-19, 03:21:05,VALID,1004.08,VALID,0,VALID,93.9802,VALID,0.0815089,VALID,22.7677,VALID,351,VALID,0,
2012-06-19, 03:22:05,VALID,1004.07,VALID,0,VALID,93.9954,VALID,0.0815089,VALID,22.7677,VALID,351,VALID,0,
2012-06-19, 03:23:05,VALID,1004.08,VALID,0,VALID,94.1328,VALID,0,VALID,22.8066,VALID,351,VALID,0,
2012-06-19, 03:24:05,VALID,1004.09,VALID,0,VALID,94.148,VALID,0.0815089,VALID,22.8048,VALID,351,VALID,0,
2012-06-19, 03:25:05,VALID,1004.09,VALID,0,VALID,94.1633,VALID,0,VALID,22.826,VALID,351,VALID,0,
2012-06-19, 03:26:05,VALID,1004.11,VALID,0,VALID,94.1175,VALID,0.0815089,VALID,22.8066,VALID,351,VALID,0,
2012-06-19, 03:27:05,VALID,1004.13,VALID,0,VALID,94.1022,VALID,0,VALID,22.826,VALID,351,VALID,0,
2012-06-19, 03:28:05,VALID,1004.09,VALID,0,VALID,94.0794,VALID,0.0815089,VALID,22.8066,VALID,351,VALID,0,
2012-06-19, 03:29:05,VALID,1004.13,VALID,0,VALID,94.1099,VALID,0,VALID,22.826,VALID,351,VALID,0,
2012-06-19, 03:30:05,VALID,1004.09,VALID,0,VALID,94.1404,VALID,0,VALID,22.826,VALID,351,VALID,0,
2012-06-19, 03:31:05,VALID,1004.09,VALID,0,VALID,94.0946,VALID,0.0815089,VALID,22.8066,VALID,351,VALID,0,
2012-06-19, 03:32:05,VALID,1004.07,VALID,0,VALID,94.2243,VALID,0.0815089,VALID,22.8243,VALID,351,VALID,0,
2012-06-19, 03:33:05,VALID,1004.07,VALID,0,VALID,94.1785,VALID,0,VALID,22.826,VALID,351,VALID,0,
2012-06-19, 03:34:05,VALID,1004.1,VALID,0,VALID,94.1175,VALID,0,VALID,22.826,VALID,351,VALID,0,
2012-06-19, 03:35:05,VALID,1004.05,VALID,0,VALID,94.1022,VALID,0,VALID,22.8066,VALID,351,VALID,0,
2012-06-19, 03:36:05,VALID,1004.07,VALID,0,VALID,94.0488,VALID,0,VALID,22.8083,VALID,351,VALID,0,
2012-06-19, 03:37:05,VALID,1004.06,VALID,0,VALID,94.0107,VALID,0,VALID,22.7677,VALID,351,VALID,0,
2012-06-19, 03:38:05,VALID,1004.13,VALID,0,VALID,94.087,VALID,0,VALID,22.7677,VALID,351,VALID,0,
2012-06-19, 03:39:05,VALID,1004.13,VALID,0,VALID,94.1556,VALID,0.0815089,VALID,22.8083,VALID,351,VALID,0,
2012-06-19, 03:40:05,VALID,1004.13,VALID,0,VALID,94.1251,VALID,0.0815089,VALID,22.7677,VALID,351,VALID,0,
2012-06-19, 03:41:05,VALID,1004.11,VALID,0,VALID,94.2167,VALID,0.0815089,VALID,22.7871,VALID,351,VALID,0,
2012-06-19, 03:42:05,VALID,1004.11,VALID,0,VALID,94.293,VALID,0.0815089,VALID,22.826,VALID,351,VALID,0,
2012-06-19, 03:43:05,VALID,1004.12,VALID,0,VALID,94.3311,VALID,0,VALID,22.8667,VALID,351,VALID,0,
2012-06-19, 03:44:05,VALID,1004.09,VALID,0,VALID,94.4532,VALID,0,VALID,22.8844,VALID,351,VALID,0,
2012-06-19, 03:45:05,VALID,1004.1,VALID,0,VALID,94.4684,VALID,0,VALID,22.9021,VALID,351,VALID,0,
2012-06-19, 03:46:05,VALID,1004.08,VALID,0,VALID,94.293,VALID,0,VALID,22.8649,VALID,351,VALID,0,
2012-06-19, 03:47:05,VALID,1004.08,VALID,0,VALID,94.2167,VALID,0,VALID,22.8649,VALID,351,VALID,0,
2012-06-19, 03:48:05,VALID,1004.08,VALID,0,VALID,94.2319,VALID,0.0815089,VALID,22.8455,VALID,351,VALID,0,
2012-06-19, 03:49:05,VALID,1004.13,VALID,0,VALID,94.209,VALID,0,VALID,22.826,VALID,351,VALID,0,